Japanese version Home page |
Updated on January 31, 2002 |
Profile |
Orbital ElementsEpoch 2001 Sept. 8.0 TT = JDT 2452160.5 T 2001 Sept. 3.06877 TT Muraoka q 3.6266228 (2000.0) P Q n 0.11666997 Peri. 227.94801 -0.30287818 -0.95287795 a 4.1479164 Node 239.69000 +0.88009492 -0.27281790 e 0.1256760 Incl. 1.12719 +0.36564702 -0.13264239 P 8.45 From 74 observations 1975-1995, mean residual 0".87.
|
Finding Charts
|
Magnitudes Graphm1 = 6.5 + 5 log d + 20.0 log r
|
The orbital elements are calculated by Kenji Muraoka.
|